Wind_Speed
21 27 32 40 41 42 40 35 33 38 27 42 44 43 42 32 37 36 32 38 41 45 51 48 45 43 29 37 40 41 30 20 25 46 36 31 29 26 24 20 17 13 12 14
24 33 34 34 32 37 36 38 35 30 33 35 42 42 38 38 31 39 35 37 41 43 45 47 46 39 32 37 39 33 34 25 20 23 28 27 26 22 23 20 17 15 15 18
28 32 31 33 34 33 37 37 38 31 29 34 32 42 40 36 36 35 31 32 34 38 39 36 29 28 37 35 31 28 25 27 24 29 26 24 22 24 24 21 18 16 19 20
29 22 30 30 35 34 30 31 35 33 31 29 37 17 36 40 43 37 37 31 33 33 35 37 31 29 38 37 33 29 30 29 24 24 24 28 27 22 20 19 19 19 21 21
23 25 24 26 32 31 33 29 30 36 35 31 33 25 37 41 44 43 40 41 34 33 33 30 39 35 36 37 34 29 32 27 20 27 24 26 26 24 23 21 21 20 19 21
21 21 28 21 17 30 28 27 31 30 40 19 34 22 36 39 53 47 41 41 37 34 34 26 37 36 37 40 37 29 22 20 23 31 29 26 25 23 22 21 20 18 20 17
18 24 31 28 22 28 29 24 14 10 18 9 34 19 16 33 42 38 32 36 38 38 32 29 32 35 38 39 38 30 21 25 24 24 24 26 25 23 20 18 21 22 19 21
9 5 13 22 26 24 29 29 7 7 6 16 28 11 22 27 36 28 25 31 35 39 32 29 34 33 35 38 34 25 24 28 23 19 20 22 22 21 17 19 21 20 21 23
8 3 9 11 22 24 25 26 26 12 15 13 15 23 32 26 21 27 28 37 41 39 33 34 29 26 36 38 27 22 21 23 20 22 23 24 23 18 21 21 21 21 22 23
8 8 3 10 16 19 25 27 15 17 9 5 12 33 17 29 19 14 33 40 44 39 32 34 33 36 35 33 24 21 21 20 22 23 26 26 23 20 19 21 21 23 23 24
9 3 8 16 12 29 20 27 22 20 9 6 7 17 33 24 25 15 25 43 44 43 42 40 43 42 38 34 25 21 24 23 20 20 20 20 18 17 19 22 23 21 21 22
12 11 11 16 9 16 22 24 28 13 16 9 3 8 29 19 20 22 29 46 47 45 46 43 38 34 37 32 31 28 25 23 20 18 20 18 18 16 19 20 19 20 21 24
18 3 10 7 7 6 19 28 20 32 20 20 2 2 18 21 25 30 35 46 47 46 45 41 42 37 38 37 36 31 27 24 19 19 18 18 19 19 19 19 19 21 23 28
8 9 10 9 12 10 12 21 24 35 11 13 11 5 11 30 39 41 43 44 45 44 42 40 40 41 39 37 32 28 25 22 22 20 17 17 16 16 17 17 19 22 26 31
10 16 23 22 20 14 11 14 27 24 32 14 14 9 10 31 37 46 42 41 43 41 39 37 37 38 38 35 30 26 26 24 21 17 14 15 15 15 15 17 21 24 27 27
24 9 14 18 17 17 16 20 20 16 28 19 18 8 18 32 42 43 41 41 41 42 41 41 40 38 34 29 26 27 25 22 17 16 15 14 12 12 16 19 23 23 24 30
14 11 10 6 13 12 7 21 28 15 15 14 6 22 32 43 41 42 40 38 39 39 37 37 36 32 28 26 25 25 23 19 17 15 12 10 12 15 17 18 21 25 28 31
9 15 7 7 14 2 9 25 23 17 14 23 17 36 40 51 46 41 36 37 38 39 36 33 30 27 26 21 22 21 20 18 14 11 10 11 13 13 16 20 24 27 29 28
12 10 4 2 4 18 21 24 21 29 10 9 24 45 46 43 45 43 40 33 36 34 34 29 27 23 21 23 23 21 18 15 12 11 10 9 10 13 19 23 25 25 25 24
18 16 6 5 3 5 17 7 17 19 22 23 34 46 39 35 44 46 40 29 32 33 29 23 22 24 26 25 22 18 14 12 10 8 8 10 14 18 21 22 21 20 20 18
18 14 9 5 5 13 22 19 12 3 19 38 43 50 44 38 41 48 44 30 27 28 25 18 27 28 24 20 17 14 12 10 8 9 10 13 17 19 19 18 17 15 16 14
12 11 8 6 5 6 19 18 4 8 32 34 32 37 37 39 47 45 34 34 30 27 27 30 26 22 19 16 13 10 8 9 9 10 12 16 17 16 15 14 13 12 11 10
12 19 7 6 11 24 16 11 13 13 22 31 32 37 33 37 39 35 33 31 33 33 29 25 21 18 15 12 10 8 8 8 9 10 13 14 13 12 11 11 10 9 9 9
13 26 27 24 26 21 19 20 21 25 26 31 28 35 32 27 34 35 33 36 33 29 25 22 18 14 11 9 7 6 6 7 10 10 11 10 10 10 9 7 7 8 7 6
14 20 28 31 32 23 22 24 24 26 33 39 34 32 27 37 42 41 39 33 28 25 21 17 12 10 8 6 4 5 7 8 8 7 6 7 8 8 7 7 7 8 5 6
13 17 23 23 20 22 23 19 20 25 30 29 27 31 38 47 45 40 33 30 25 21 15 13 11 9 6 5 5 6 4 4 4 5 5 5 7 8 8 8 8 7 4 5
Wind_Direction
239 228 225 222 220 226 231 237 233 232 230 225 231 231 232 235 225 222 230 228 220 221 216 222 227 226 223 240 242 242 255 260 202 196 203 210 217 223 234 235 249 271 270 271
240 239 226 223 229 236 234 238 242 238 223 223 228 231 227 229 233 216 220 231 225 227 229 232 229 217 224 240 241 244 249 252 236 237 219 216 223 229 239 246 251 262 274 279
252 240 235 234 230 236 236 233 239 241 229 231 232 231 226 226 224 221 221 221 225 230 233 221 219 216 214 230 239 230 232 241 235 219 214 220 225 228 236 247 254 261 271 280
246 261 242 231 227 229 237 230 236 245 245 249 227 228 224 224 221 219 216 214 223 223 232 215 211 216 215 225 227 232 242 248 234 217 213 232 234 237 239 246 252 263 274 287
249 254 230 241 231 224 234 228 228 238 248 247 250 236 225 223 212 216 214 216 219 226 229 225 207 210 220 224 230 235 229 222 230 216 215 227 231 228 234 242 256 268 285 299
247 257 250 240 223 232 226 223 233 237 240 247 245 245 225 212 212 208 212 217 218 221 217 222 212 213 225 225 228 230 232 222 232 215 221 224 232 236 239 254 263 276 290 303
256 253 250 254 243 219 214 224 219 222 230 223 236 243 228 206 207 213 234 219 210 214 214 213 208 215 223 225 230 238 245 237 221 212 218 226 235 233 245 254 269 285 300 298
261 7 170 236 224 225 211 229 204 173 186 220 222 213 211 219 217 206 224 210 210 212 204 203 209 212 220 228 225 231 230 216 218 211 213 221 227 237 251 265 281 284 284 287
332 10 250 202 223 203 233 238 224 189 207 215 201 220 229 210 212 211 226 215 205 203 194 199 206 200 213 220 220 239 223 208 210 215 219 218 223 235 254 264 271 277 282 294
325 312 299 213 225 216 221 200 225 234 184 184 195 215 213 212 197 216 190 203 200 195 187 190 208 209 208 216 215 235 212 207 214 220 223 226 226 234 246 261 267 275 284 291
335 273 271 286 230 214 195 231 235 226 212 205 183 213 210 228 218 213 178 187 186 182 186 190 201 204 198 209 213 228 214 215 221 235 240 232 232 244 257 263 270 277 280 287
319 315 283 277 243 193 205 215 220 229 213 197 355 185 199 210 202 198 168 172 174 181 187 195 197 196 191 196 214 212 217 223 230 250 249 241 238 242 251 255 259 270 281 290
309 306 310 323 154 185 218 216 206 215 214 221 166 94 182 185 184 185 174 167 177 182 188 193 199 196 194 198 211 210 220 228 244 252 237 218 222 235 243 251 263 277 287 294
286 254 241 262 277 311 235 214 212 205 190 218 222 25 136 169 186 181 171 171 173 181 188 191 193 199 198 197 203 209 217 234 245 237 215 216 223 233 245 260 273 284 292 294
260 294 291 284 261 247 227 208 196 219 200 196 212 255 215 149 156 169 167 169 172 175 181 186 188 188 192 196 203 219 232 237 227 210 207 212 224 239 256 272 282 285 289 292
303 288 302 288 227 221 234 198 198 187 207 209 223 245 215 154 149 158 170 170 172 173 173 179 185 192 195 198 208 226 235 217 206 202 205 215 232 254 268 276 283 287 293 296
301 330 333 289 169 152 209 186 194 178 196 204 273 194 173 151 151 158 165 173 174 172 170 177 183 188 195 207 220 227 206 195 191 193 205 226 252 267 276 283 288 292 297 301
300 316 316 316 146 106 87 164 170 172 190 217 271 157 165 144 146 150 164 176 174 173 176 181 184 192 204 207 203 185 177 179 186 201 225 245 260 273 286 291 296 302 304 305
350 27 342 356 42 117 101 134 144 166 136 182 150 150 160 151 150 144 158 176 173 177 176 184 194 202 187 179 171 168 170 181 201 218 237 255 275 294 302 305 308 306 307 308
22 21 18 9 33 76 115 113 151 162 119 163 160 162 162 167 148 144 165 179 181 183 179 197 185 171 168 163 163 169 179 191 208 222 245 267 292 306 310 309 308 310 312 317
0 15 68 54 82 124 121 124 157 161 159 159 163 143 157 160 158 154 162 164 175 172 169 166 162 159 158 164 168 173 179 196 222 247 268 294 304 308 308 312 318 321 318 318
0 355 35 37 65 145 156 150 140 156 156 180 177 172 170 165 152 157 156 161 161 164 157 153 152 154 160 162 164 177 200 227 247 276 300 302 303 309 317 323 325 321 323 333
10 11 10 51 55 100 112 138 136 164 176 165 173 170 179 169 157 164 157 152 148 146 145 146 151 157 162 169 180 200 226 257 283 297 298 300 310 317 325 328 323 329 337 338
35 61 67 69 98 101 82 104 143 160 161 162 170 172 171 171 158 151 149 147 141 142 146 147 154 164 176 187 201 234 264 285 289 295 299 308 321 330 327 322 327 329 335 342
22 66 85 94 111 96 82 95 123 150 164 167 173 171 168 158 147 147 143 141 145 149 151 155 164 177 184 199 231 271 281 285 289 301 328 326 328 333 329 324 330 340 339 343
53 76 85 92 103 106 120 109 103 124 155 149 162 169 170 153 151 146 145 146 145 145 148 162 168 171 185 225 250 260 268 290 321 342 341 334 344 352 347 336 329 338 331 341
Height
2997 3000 2997 3000 3006 3010 3014 3020 3022 3025 3032 3038 3038 3046 3052 3058 3064 3067 3072 3077 3081 3084 3090 3093 3097 3104 3108 3106 3107 3111 3110 3114 3111 3100 3131 3128 3137 3137 3141 3148 3149 3153 3155 3155
2993 2988 2992 2998 3002 3006 3011 3015 3017 3023 3026 3032 3033 3038 3045 3052 3054 3060 3064 3069 3074 3079 3083 3086 3090 3100 3103 3099 3104 3108 3112 3117 3113 3122 3128 3132 3135 3137 3139 3145 3146 3149 3151 3150
2984 2982 2990 2994 2997 3000 3003 3008 3011 3018 3022 3024 3030 3033 3038 3042 3049 3053 3058 3063 3067 3069 3074 3077 3084 3094 3097 3099 3099 3106 3111 3114 3117 3123 3127 3132 3133 3135 3136 3139 3144 3147 3145 3146
2978 2981 2984 2987 2991 2995 2999 3003 3008 3011 3017 3015 3020 3023 3029 3034 3039 3045 3051 3055 3060 3064 3068 3072 3080 3088 3091 3096 3098 3103 3109 3113 3116 3119 3122 3128 3128 3133 3136 3139 3141 3142 3141 3143
2974 2973 2977 2980 2986 2992 2992 2998 3003 3006 3011 3015 3013 3019 3018 3026 3032 3034 3041 3049 3056 3060 3064 3069 3075 3084 3088 3093 3095 3099 3103 3105 3112 3115 3121 3123 3127 3128 3132 3136 3138 3137 3137 3136
2967 2971 2972 2974 2977 2986 2992 2995 3000 3005 3003 3009 3005 3014 3012 3014 3016 3027 3038 3043 3049 3055 3060 3067 3071 3079 3083 3087 3092 3098 3102 3102 3107 3110 3116 3119 3124 3128 3127 3130 3133 3134 3133 3133
2964 2963 2965 2968 2972 2976 2983 2987 2993 3000 2996 2999 3001 3008 3006 3010 3015 3023 3029 3034 3042 3050 3057 3064 3067 3073 3076 3083 3087 3093 3095 3102 3106 3112 3112 3116 3121 3123 3122 3126 3128 3130 3130 3131
2959 2959 2960 2961 2965 2969 2974 2980 2981 2994 2998 2995 2998 2999 3001 3006 3015 3020 3025 3031 3039 3045 3053 3060 3064 3070 3073 3076 3084 3093 3099 3101 3103 3106 3109 3112 3115 3118 3121 3123 3125 3127 3127 3127
2960 2955 2957 2959 2965 2971 2970 2973 2980 2986 2987 2991 2991 2996 3002 3002 3011 3015 3018 3025 3031 3039 3048 3057 3062 3068 3067 3072 3081 3089 3093 3096 3099 3102 3106 3109 3114 3117 3119 3121 3123 3123 3123 3123
2963 2959 2954 2956 2961 2964 2964 2972 2978 2979 2982 2989 2986 2987 2993 2998 3004 3005 3005 3014 3026 3039 3047 3054 3057 3058 3063 3069 3079 3083 3088 3093 3097 3100 3103 3107 3113 3117 3118 3118 3119 3118 3118 3117
2961 2961 2957 2954 2952 2957 2965 2967 2973 2979 2979 2986 2986 2985 2994 2998 3001 3004 3004 3012 3024 3034 3039 3043 3048 3053 3063 3070 3077 3081 3084 3089 3094 3099 3102 3105 3109 3113 3114 3114 3114 3114 3114 3115
2960 2957 2952 2947 2947 2953 2959 2964 2968 2971 2978 2978 2982 2982 2986 2992 2998 3003 3005 3009 3018 3027 3034 3041 3048 3055 3062 3069 3073 3077 3082 3087 3092 3096 3099 3101 3105 3108 3110 3111 3111 3112 3112 3111
2957 2955 2952 2943 2948 2950 2954 2961 2967 2972 2976 2976 2983 2981 2981 2990 2996 3001 3005 3008 3016 3026 3033 3040 3048 3054 3060 3066 3071 3075 3081 3085 3090 3092 3094 3097 3101 3103 3106 3108 3109 3109 3108 3106
2955 2953 2952 2951 2948 2950 2950 2957 2962 2968 2976 2979 2983 2985 2985 2986 2992 2996 3001 3009 3016 3025 3032 3040 3045 3052 3058 3063 3068 3074 3079 3084 3087 3090 3092 3095 3098 3102 3104 3105 3105 3105 3103 3100
2953 2949 2947 2941 2941 2945 2949 2952 2958 2961 2972 2978 2983 2987 2988 2989 2992 2993 3002 3009 3016 3023 3030 3038 3044 3050 3055 3060 3066 3073 3078 3082 3085 3087 3091 3094 3097 3100 3101 3102 3101 3100 3098 3095
2948 2944 2941 2934 2935 2939 2946 2950 2958 2958 2968 2975 2982 2982 2986 2988 2993 2991 3000 3008 3015 3021 3029 3035 3040 3046 3054 3061 3067 3072 3076 3080 3083 3087 3091 3094 3096 3097 3097 3097 3096 3095 3093 3088
2944 2941 2939 2934 2934 2941 2947 2950 2955 2962 2963 2966 2973 2978 2978 2982 2991 2991 2998 3007 3015 3023 3029 3034 3040 3048 3055 3061 3066 3071 3075 3079 3083 3087 3089 3091 3092 3093 3093 3092 3090 3089 3086 3081
2941 2941 2940 2938 2939 2938 2940 2946 2955 2964 2967 2974 2973 2973 2978 2975 2988 2996 3004 3007 3015 3022 3030 3036 3043 3049 3055 3061 3065 3069 3074 3079 3083 3086 3088 3089 3089 3090 3089 3087 3084 3081 3078 3074
2940 2943 2941 2940 2940 2944 2949 2954 2959 2963 2975 2974 2973 2967 2976 2978 2988 3001 3009 3015 3020 3026 3033 3038 3044 3050 3056 3062 3066 3070 3075 3079 3082 3085 3086 3086 3086 3086 3085 3082 3078 3075 3072 3068
2944 2944 2944 2942 2941 2947 2954 2953 2961 2966 2976 2976 2974 2975 2978 2986 2992 3003 3011 3018 3024 3030 3035 3040 3046 3052 3058 3063 3068 3072 3076 3079 3081 3083 3084 3084 3083 3081 3079 3076 3073 3070 3067 3065
2943 2946 2947 2946 2949 2954 2953 2960 2965 2967 2981 2977 2980 2972 2983 2987 2997 3005 3013 3021 3029 3035 3041 3044 3050 3056 3061 3066 3070 3073 3076 3078 3080 3081 3081 3079 3078 3077 3074 3072 3069 3067 3064 3063
2951 2948 2949 2952 2944 2954 2959 2963 2965 2968 2973 2979 2984 2989 2991 2995 3001 3008 3017 3023 3030 3035 3041 3047 3054 3059 3064 3068 3071 3074 3076 3078 3079 3077 3076 3075 3075 3072 3070 3067 3066 3064 3062 3060
2956 2956 2954 2955 2961 2960 2963 2965 2965 2968 2970 2981 2987 2992 2996 3002 3008 3016 3021 3027 3034 3040 3046 3051 3058 3063 3066 3069 3071 3073 3075 3075 3074 3073 3073 3072 3070 3068 3066 3065 3064 3063 3061 3059
2964 2959 2957 2955 2963 2966 2967 2965 2968 2972 2974 2981 2990 2996 3003 3007 3013 3019 3026 3032 3038 3044 3050 3055 3060 3064 3066 3069 3070 3072 3072 3071 3071 3071 3070 3068 3067 3066 3065 3064 3063 3061 3059 3057
2970 2968 2966 2967 2968 2970 2973 2975 2975 2978 2982 2987 2994 3001 3005 3010 3017 3024 3029 3036 3042 3047 3052 3056 3060 3063 3066 3067 3067 3068 3068 3068 3068 3068 3067 3066 3065 3064 3064 3063 3062 3059 3057 3056
2978 2976 2974 2976 2976 2977 2979 2982 2982 2983 2988 2994 3000 3005 3008 3014 3021 3027 3034 3039 3044 3049 3053 3058 3060 3063 3065 3065 3066 3067 3066 3066 3066 3066 3066 3066 3064 3063 3062 3061 3059 3057 3055 3054